| time (UTC) | temp F | wind direction | speed MPH | gust MPH | rain 1hr in | rain 24hr in | rain mn in | humidity % | barometer mb |
| 20260905165032 | 94 | 176 | 2.0 | 3.0 | 0.00 | 0.00 | 0.00 | 57 | 1018.3 |
| 20260905164526 | 93 | 238 | 3.0 | 6.0 | 0.00 | 0.00 | 0.00 | 57 | 1018.2 |
| 20260905164021 | 93 | 124 | 5.0 | 6.0 | 0.00 | 0.00 | 0.00 | 56 | 1018.1 |
| 20260905163517 | 93 | 218 | 1.0 | 1.0 | 0.00 | 0.00 | 0.00 | 58 | 1018.3 |
| 20260905163013 | 91 | 233 | 0.0 | 0.0 | 0.00 | 0.00 | 0.00 | 65 | 1018.0 |
| 20260905162508 | 91 | 173 | 1.0 | 3.0 | 0.00 | 0.00 | 0.00 | 65 | 1018.2 |
| 20260905162003 | 90 | 195 | 0.0 | 0.0 | 0.00 | 0.00 | 0.00 | 67 | 1018.4 |
| 20260905161503 | 90 | 211 | 0.0 | 1.0 | 0.00 | 0.00 | 0.00 | 67 | 1017.9 |
| 20260905161000 | 91 | 235 | 0.0 | 0.0 | 0.00 | 0.00 | 0.00 | 67 | 1018.1 |
| 20260905160454 | 92 | 213 | 2.0 | 3.0 | 0.00 | 0.00 | 0.00 | 65 | 1018.2 |
| 20260905155954 | 91 | 209 | 1.0 | 1.0 | 0.00 | 0.00 | 0.00 | 65 | 1018.4 |
| 20260905155449 | 90 | 199 | 1.0 | 1.0 | 0.00 | 0.00 | 0.00 | 67 | 1018.4 |
| 20260905154947 | 88 | 199 | 3.0 | 3.0 | 0.00 | 0.00 | 0.00 | 68 | 1018.2 |
| 20260905154443 | 88 | 178 | 4.0 | 5.0 | 0.00 | 0.00 | 0.00 | 70 | 1018.3 |
| 20260905153938 | 88 | 206 | 1.0 | 1.0 | 0.00 | 0.00 | 0.00 | 71 | 1018.3 |
| 20260905153434 | 88 | 270 | 0.0 | 0.0 | 0.00 | 0.00 | 0.00 | 71 | 1018.2 |
| 20260905152933 | 89 | 237 | 0.0 | 1.0 | 0.00 | 0.00 | 0.00 | 72 | 1018.2 |
| 20260905152433 | 89 | 255 | 0.0 | 1.0 | 0.00 | 0.00 | 0.00 | 72 | 1018.4 |
| 20260905151928 | 89 | 213 | 2.0 | 2.0 | 0.00 | 0.00 | 0.00 | 71 | 1018.4 |
| 20260905151424 | 88 | 256 | 0.0 | 0.0 | 0.00 | 0.00 | 0.00 | 74 | 1018.3 |
| 20260905150919 | 88 | 216 | 0.0 | 0.0 | 0.00 | 0.00 | 0.00 | 73 | 1018.3 |
| 20260905150419 | 89 | 197 | 1.0 | 2.0 | 0.00 | 0.00 | 0.00 | 74 | 1018.4 |
| 20260905145915 | 87 | 175 | 0.0 | 0.0 | 0.00 | 0.00 | 0.00 | 76 | 1018.3 |
| 20260905145410 | 87 | 210 | 1.0 | 2.0 | 0.00 | 0.00 | 0.00 | 76 | 1018.3 |
| 20260905144909 | 87 | 207 | 3.0 | 3.0 | 0.00 | 0.00 | 0.00 | 78 | 1018.2 |
| 20260905144405 | 87 | 127 | 2.0 | 3.0 | 0.00 | 0.00 | 0.00 | 75 | 1018.2 |
| 20260905143904 | 87 | 208 | 0.0 | 1.0 | 0.00 | 0.00 | 0.00 | 77 | 1018.3 |
| 20260905143358 | 86 | 206 | 1.0 | 1.0 | 0.00 | 0.00 | 0.00 | 81 | 1018.2 |
| 20260905142857 | 86 | 235 | 0.0 | 0.0 | 0.00 | 0.00 | 0.00 | 82 | 1018.1 |
| 20260905142356 | 86 | 209 | 0.0 | 0.0 | 0.00 | 0.00 | 0.00 | 81 | 1018.3 |
| 20260905141852 | 84 | 208 | 3.0 | 3.0 | 0.00 | 0.00 | 0.00 | 83 | 1018.3 |
| 20260905141347 | 84 | 207 | 0.0 | 0.0 | 0.00 | 0.00 | 0.00 | 84 | 1018.2 |
| 20260905140844 | 84 | 184 | 2.0 | 2.0 | 0.00 | 0.00 | 0.00 | 85 | 1018.2 |
| 20260905140343 | 83 | 205 | 2.0 | 2.0 | 0.00 | 0.00 | 0.00 | 86 | 1017.9 |
| 20260905135842 | 83 | 203 | 2.0 | 2.0 | 0.00 | 0.00 | 0.00 | 87 | 1018.2 |
| 20260905135338 | 81 | 207 | 2.0 | 2.0 | 0.00 | 0.00 | 0.00 | 90 | 1017.9 |
| 20260905134833 | 81 | 170 | 2.0 | 3.0 | 0.00 | 0.00 | 0.00 | 92 | 1018.0 |
| 20260905134326 | 80 | 203 | 1.0 | 1.0 | 0.00 | 0.00 | 0.00 | 94 | 1018.0 |
| 20260905133821 | 80 | 196 | 3.0 | 3.0 | 0.00 | 0.00 | 0.00 | 94 | 1018.0 |
| 20260905133316 | 80 | 201 | 3.0 | 5.0 | 0.00 | 0.00 | 0.00 | 92 | 1017.9 |
| 20260905132815 | 79 | 203 | 3.0 | 3.0 | 0.00 | 0.00 | 0.00 | 94 | 1017.8 |
| 20260905132311 | 79 | 207 | 1.0 | 2.0 | 0.00 | 0.00 | 0.00 | 95 | 1017.8 |
| 20260905131811 | 79 | 203 | 1.0 | 1.0 | 0.00 | 0.00 | 0.00 | 95 | 1017.7 |
| 20260905131306 | 78 | 197 | 2.0 | 3.0 | 0.00 | 0.00 | 0.00 | 96 | 1017.9 |
| 20260905130801 | 78 | 150 | 3.0 | 3.0 | 0.00 | 0.00 | 0.00 | 98 | 1017.7 |
| 20260905130300 | 77 | 188 | 2.0 | 2.0 | 0.00 | 0.00 | 0.00 | 99 | 1017.5 |
| 20260905125755 | 76 | 219 | 1.0 | 2.0 | 0.00 | 0.00 | 0.00 | 99 | 1017.4 |
| 20260905125250 | 76 | 205 | 0.0 | 0.0 | 0.00 | 0.00 | 0.00 | 99 | 1017.5 |
| 20260905124747 | 75 | 223 | 0.0 | 0.0 | 0.00 | 0.00 | 0.00 | 99 | 1017.4 |
| 20260905124243 | 75 | 222 | 0.0 | 0.0 | 0.00 | 0.00 | 0.00 | 99 | 1017.4 |
| 20260905123737 | 75 | 221 | 0.0 | 0.0 | 0.00 | 0.00 | 0.00 | 99 | 1017.3 |
| 20260905123234 | 75 | 222 | 0.0 | 0.0 | 0.00 | 0.00 | 0.00 | 99 | 1017.6 |
| 20260905122729 | 75 | 222 | 0.0 | 0.0 | 0.00 | 0.00 | 0.00 | 99 | 1017.6 |
| 20260905122228 | 75 | 230 | 0.0 | 0.0 | 0.00 | 0.00 | 0.00 | 99 | 1017.1 |
| 20260905121724 | 75 | 230 | 0.0 | 0.0 | 0.00 | 0.00 | 0.00 | 99 | 1017.3 |
| 20260905121220 | 75 | 230 | 0.0 | 0.0 | 0.00 | 0.00 | 0.00 | 99 | 1017.1 |
| 20260905120719 | 75 | 230 | 0.0 | 0.0 | 0.00 | 0.00 | 0.00 | 99 | 1017.0 |
| 20260905120214 | 75 | 230 | 0.0 | 0.0 | 0.00 | 0.00 | 0.00 | 99 | 1017.3 |
| 20260905115714 | 75 | 230 | 0.0 | 0.0 | 0.00 | 0.00 | 0.00 | 99 | 1017.1 |
| 20260905115208 | 75 | 230 | 0.0 | 0.0 | 0.00 | 0.00 | 0.00 | 99 | 1017.2 |
| 20260905114703 | 75 | 230 | 0.0 | 0.0 | 0.00 | 0.00 | 0.00 | 99 | 1017.1 |
| 20260905114201 | 75 | 230 | 0.0 | 0.0 | 0.00 | 0.00 | 0.00 | 99 | 1017.0 |
| 20260905113701 | 75 | 230 | 0.0 | 0.0 | 0.00 | 0.00 | 0.00 | 99 | 1017.1 |
| 20260905113157 | 75 | 230 | 0.0 | 0.0 | 0.00 | 0.00 | 0.00 | 99 | 1016.6 |
| 20260905112656 | 75 | 230 | 0.0 | 0.0 | 0.00 | 0.00 | 0.00 | 99 | 1016.8 |
| 20260905112152 | 76 | 230 | 0.0 | 0.0 | 0.00 | 0.00 | 0.00 | 99 | 1016.8 |
| 20260905111652 | 76 | 230 | 0.0 | 0.0 | 0.00 | 0.00 | 0.00 | 99 | 1016.7 |
| 20260905111151 | 76 | 232 | 0.0 | 0.0 | 0.00 | 0.00 | 0.00 | 99 | 1016.8 |
| 20260905110650 | 76 | 232 | 0.0 | 0.0 | 0.00 | 0.00 | 0.00 | 99 | 1016.7 |
| 20260905110145 | 76 | 232 | 0.0 | 0.0 | 0.00 | 0.00 | 0.00 | 99 | 1016.7 |
| 20260905105641 | 76 | 232 | 0.0 | 0.0 | 0.00 | 0.00 | 0.00 | 99 | 1016.7 |
| 20260905105139 | 76 | 232 | 0.0 | 0.0 | 0.00 | 0.00 | 0.00 | 99 | 1016.6 |
| 20260905104635 | 76 | 232 | 0.0 | 0.0 | 0.00 | 0.00 | 0.00 | 99 | 1016.5 |
| 20260905104130 | 76 | 232 | 0.0 | 0.0 | 0.00 | 0.00 | 0.00 | 98 | 1016.5 |
| 20260905103625 | 76 | 232 | 0.0 | 0.0 | 0.00 | 0.00 | 0.00 | 98 | 1016.5 |
| 20260905103121 | 76 | 232 | 0.0 | 0.0 | 0.00 | 0.00 | 0.00 | 98 | 1016.8 |
| 20260905102617 | 76 | 232 | 0.0 | 0.0 | 0.00 | 0.00 | 0.00 | 98 | 1016.7 |
| 20260905102114 | 76 | 232 | 0.0 | 0.0 | 0.00 | 0.00 | 0.00 | 98 | 1016.7 |
| 20260905101611 | 76 | 232 | 0.0 | 0.0 | 0.00 | 0.00 | 0.00 | 98 | 1016.6 |
| 20260905101110 | 76 | 232 | 0.0 | 0.0 | 0.00 | 0.00 | 0.00 | 98 | 1016.6 |
| 20260905100607 | 76 | 232 | 0.0 | 0.0 | 0.00 | 0.00 | 0.00 | 97 | 1016.5 |
| 20260905100101 | 76 | 232 | 0.0 | 0.0 | 0.00 | 0.00 | 0.00 | 97 | 1016.6 |
| 20260905095555 | 77 | 232 | 0.0 | 0.0 | 0.00 | 0.00 | 0.00 | 97 | 1016.6 |
| 20260905095051 | 77 | 232 | 0.0 | 0.0 | 0.00 | 0.00 | 0.00 | 97 | 1016.5 |
| 20260905094545 | 77 | 232 | 0.0 | 0.0 | 0.00 | 0.00 | 0.00 | 97 | 1016.5 |
| 20260905094045 | 77 | 232 | 0.0 | 0.0 | 0.00 | 0.00 | 0.00 | 97 | 1016.4 |
| 20260905093545 | 77 | 232 | 0.0 | 0.0 | 0.00 | 0.00 | 0.00 | 96 | 1016.3 |
| 20260905093042 | 77 | 232 | 0.0 | 0.0 | 0.00 | 0.00 | 0.00 | 96 | 1016.5 |
| 20260905092535 | 77 | 232 | 0.0 | 0.0 | 0.00 | 0.00 | 0.00 | 96 | 1016.5 |
| 20260905092032 | 77 | 231 | 0.0 | 0.0 | 0.00 | 0.00 | 0.00 | 96 | 1016.5 |
| 20260905091530 | 77 | 230 | 0.0 | 0.0 | 0.00 | 0.00 | 0.00 | 95 | 1016.5 |
| 20260905091031 | 77 | 230 | 0.0 | 0.0 | 0.00 | 0.00 | 0.00 | 95 | 1016.7 |
| 20260905090525 | 77 | 231 | 0.0 | 0.0 | 0.00 | 0.00 | 0.00 | 94 | 1016.8 |
| 20260905090020 | 77 | 231 | 0.0 | 0.0 | 0.00 | 0.00 | 0.00 | 94 | 1016.6 |
| 20260905085519 | 78 | 228 | 0.0 | 0.0 | 0.00 | 0.00 | 0.00 | 94 | 1016.7 |
| 20260905085015 | 78 | 228 | 0.0 | 0.0 | 0.00 | 0.00 | 0.00 | 94 | 1016.7 |
| 20260905084514 | 78 | 228 | 0.0 | 0.0 | 0.00 | 0.00 | 0.00 | 93 | 1016.8 |
| 20260905084009 | 78 | 226 | 0.0 | 0.0 | 0.00 | 0.00 | 0.00 | 93 | 1016.7 |
| 20260905083504 | 78 | 226 | 0.0 | 0.0 | 0.00 | 0.00 | 0.00 | 92 | 1016.5 |
| 20260905083000 | 78 | 222 | 0.0 | 0.0 | 0.00 | 0.00 | 0.00 | 92 | 1016.6 |
| 20260905082456 | 78 | 203 | 2.0 | 2.0 | 0.00 | 0.00 | 0.00 | 92 | 1016.7 |
| 20260905081950 | 78 | 224 | 0.0 | 0.0 | 0.00 | 0.00 | 0.00 | 92 | 1016.7 |
| 20260905081446 | 78 | 223 | 0.0 | 0.0 | 0.00 | 0.00 | 0.00 | 92 | 1016.7 |
| 20260905080945 | 79 | 207 | 0.0 | 0.0 | 0.00 | 0.00 | 0.00 | 91 | 1016.8 |
| 20260905080440 | 79 | 205 | 1.0 | 1.0 | 0.00 | 0.00 | 0.00 | 91 | 1017.0 |
| 20260905075938 | 79 | 206 | 0.0 | 0.0 | 0.00 | 0.00 | 0.00 | 91 | 1016.7 |
| 20260905075433 | 79 | 222 | 0.0 | 0.0 | 0.00 | 0.00 | 0.00 | 91 | 1017.1 |
| 20260905074932 | 79 | 201 | 0.0 | 1.0 | 0.00 | 0.00 | 0.00 | 90 | 1017.2 |
| 20260905074428 | 79 | 207 | 0.0 | 1.0 | 0.00 | 0.00 | 0.00 | 90 | 1017.0 |
| 20260905073923 | 79 | 231 | 0.0 | 0.0 | 0.00 | 0.00 | 0.00 | 90 | 1017.2 |
| 20260905073418 | 79 | 225 | 0.0 | 0.0 | 0.00 | 0.00 | 0.00 | 90 | 1017.1 |
| 20260905072914 | 79 | 227 | 0.0 | 0.0 | 0.00 | 0.00 | 0.00 | 89 | 1017.1 |
| 20260905072409 | 79 | 203 | 0.0 | 0.0 | 0.00 | 0.00 | 0.00 | 89 | 1017.1 |
| 20260905071905 | 80 | 221 | 0.0 | 0.0 | 0.00 | 0.00 | 0.00 | 89 | 1017.3 |
| 20260905071401 | 80 | 205 | 0.0 | 0.0 | 0.00 | 0.00 | 0.00 | 88 | 1017.1 |
| 20260905070901 | 80 | 203 | 1.0 | 1.0 | 0.00 | 0.00 | 0.00 | 88 | 1017.2 |
| 20260905070357 | 80 | 215 | 0.0 | 1.0 | 0.00 | 0.00 | 0.00 | 88 | 1017.2 |
| 20260905065857 | 80 | 205 | 0.0 | 0.0 | 0.00 | 0.00 | 0.00 | 88 | 1017.3 |
| 20260905065355 | 80 | 206 | 0.0 | 1.0 | 0.00 | 0.00 | 0.00 | 88 | 1017.1 |
| 20260905064850 | 80 | 229 | 0.0 | 0.0 | 0.00 | 0.00 | 0.00 | 87 | 1017.2 |
| 20260905064346 | 80 | 215 | 1.0 | 1.0 | 0.00 | 0.00 | 0.00 | 86 | 1017.4 |
| 20260905063844 | 80 | 203 | 0.0 | 0.0 | 0.00 | 0.00 | 0.00 | 86 | 1017.2 |
| 20260905063341 | 80 | 224 | 1.0 | 1.0 | 0.00 | 0.00 | 0.00 | 86 | 1017.5 |
| 20260905062837 | 80 | 223 | 0.0 | 1.0 | 0.00 | 0.00 | 0.00 | 85 | 1017.3 |
| 20260905062337 | 81 | 207 | 0.0 | 0.0 | 0.00 | 0.00 | 0.00 | 85 | 1017.5 |
| 20260905061832 | 81 | 223 | 1.0 | 1.0 | 0.00 | 0.00 | 0.00 | 85 | 1017.4 |
| 20260905061331 | 81 | 207 | 2.0 | 2.0 | 0.00 | 0.00 | 0.00 | 85 | 1017.3 |
| 20260905060826 | 81 | 206 | 0.0 | 0.0 | 0.00 | 0.00 | 0.00 | 84 | 1017.3 |
| 20260905060322 | 81 | 222 | 2.0 | 2.0 | 0.00 | 0.00 | 0.00 | 84 | 1017.3 |
| 20260905055821 | 81 | 202 | 0.0 | 0.0 | 0.00 | 0.00 | 0.00 | 84 | 1017.3 |
| 20260905055316 | 81 | 177 | 4.0 | 5.0 | 0.00 | 0.00 | 0.00 | 83 | 1017.2 |
| 20260905054816 | 81 | 204 | 1.0 | 1.0 | 0.00 | 0.00 | 0.00 | 83 | 1017.2 |
| 20260905054313 | 81 | 190 | 2.0 | 2.0 | 0.00 | 0.00 | 0.00 | 83 | 1017.4 |
| 20260905053812 | 81 | 224 | 0.0 | 1.0 | 0.00 | 0.00 | 0.00 | 82 | 1017.3 |
| 20260905053307 | 81 | 210 | 1.0 | 2.0 | 0.00 | 0.00 | 0.00 | 82 | 1017.4 |
| 20260905052802 | 82 | 179 | 1.0 | 2.0 | 0.00 | 0.00 | 0.00 | 82 | 1017.2 |
| 20260905052302 | 82 | 199 | 1.0 | 2.0 | 0.00 | 0.00 | 0.00 | 81 | 1017.3 |
| 20260905051801 | 82 | 195 | 0.0 | 1.0 | 0.00 | 0.00 | 0.00 | 81 | 1017.4 |
| 20260905051258 | 82 | 196 | 1.0 | 1.0 | 0.00 | 0.00 | 0.00 | 81 | 1017.5 |
| 20260905050754 | 82 | 106 | 2.0 | 3.0 | 0.00 | 0.00 | 0.00 | 80 | 1017.5 |
| 20260905050250 | 82 | 185 | 2.0 | 3.0 | 0.00 | 0.00 | 0.00 | 80 | 1017.1 |
| 20260905045745 | 82 | 202 | 4.0 | 5.0 | 0.00 | 0.00 | 0.00 | 79 | 1017.5 |
| 20260905045240 | 82 | 201 | 1.0 | 2.0 | 0.00 | 0.00 | 0.00 | 79 | 1017.3 |
| 20260905044735 | 82 | 201 | 3.0 | 3.0 | 0.00 | 0.00 | 0.00 | 79 | 1017.4 |
| 20260905044231 | 82 | 203 | 1.0 | 1.0 | 0.00 | 0.00 | 0.00 | 79 | 1017.5 |
| 20260905043729 | 82 | 214 | 2.0 | 3.0 | 0.00 | 0.00 | 0.00 | 78 | 1017.3 |
| 20260905043229 | 82 | 176 | 2.0 | 3.0 | 0.00 | 0.00 | 0.00 | 78 | 1017.1 |
| 20260905042725 | 82 | 223 | 0.0 | 1.0 | 0.00 | 0.00 | 0.00 | 78 | 1017.4 |
| 20260905042224 | 83 | 209 | 2.0 | 2.0 | 0.00 | 0.00 | 0.00 | 77 | 1017.3 |
| 20260905041720 | 83 | 183 | 3.0 | 5.0 | 0.00 | 0.00 | 0.00 | 77 | 1017.2 |
| 20260905041215 | 83 | 207 | 1.0 | 1.0 | 0.00 | 0.00 | 0.00 | 77 | 1017.2 |
| 20260905040710 | 83 | 147 | 3.0 | 3.0 | 0.00 | 0.00 | 0.00 | 76 | 1017.0 |
| 20260905040209 | 83 | 213 | 1.0 | 1.0 | 0.00 | 0.00 | 0.00 | 76 | 1017.2 |
| 20260905035709 | 83 | 203 | 2.0 | 2.0 | 0.00 | 0.00 | 0.00 | 76 | 1017.2 |
| 20260905035205 | 83 | 213 | 2.0 | 2.0 | 0.00 | 0.00 | 0.00 | 76 | 1017.3 |
| 20260905034701 | 83 | 220 | 0.0 | 0.0 | 0.00 | 0.00 | 0.00 | 75 | 1017.1 |
| 20260905034201 | 83 | 226 | 2.0 | 2.0 | 0.00 | 0.00 | 0.00 | 75 | 1017.1 |
| 20260905033700 | 83 | 211 | 1.0 | 1.0 | 0.00 | 0.00 | 0.00 | 74 | 1017.2 |
| 20260905033156 | 84 | 199 | 2.0 | 3.0 | 0.00 | 0.00 | 0.00 | 73 | 1017.3 |
| 20260905032655 | 84 | 185 | 2.0 | 3.0 | 0.00 | 0.00 | 0.00 | 73 | 1017.0 |
| 20260905032155 | 84 | 223 | 4.0 | 6.0 | 0.00 | 0.00 | 0.00 | 72 | 1017.0 |
| 20260905031651 | 84 | 201 | 3.0 | 3.0 | 0.00 | 0.00 | 0.00 | 72 | 1016.8 |
| 20260905031147 | 84 | 192 | 2.0 | 2.0 | 0.00 | 0.00 | 0.00 | 71 | 1017.0 |
| 20260905030642 | 84 | 174 | 3.0 | 3.0 | 0.00 | 0.00 | 0.00 | 71 | 1017.0 |
| 20260905030137 | 84 | 213 | 4.0 | 5.0 | 0.00 | 0.00 | 0.00 | 71 | 1016.7 |
| 20260905025631 | 84 | 221 | 0.0 | 0.0 | 0.00 | 0.00 | 0.00 | 71 | 1016.7 |
| 20260905025128 | 84 | 192 | 1.0 | 1.0 | 0.00 | 0.00 | 0.00 | 71 | 1017.0 |
| 20260905024623 | 84 | 180 | 3.0 | 3.0 | 0.00 | 0.00 | 0.00 | 70 | 1016.7 |
| 20260905024118 | 84 | 158 | 3.0 | 3.0 | 0.00 | 0.00 | 0.00 | 70 | 1016.5 |
| 20260905023614 | 84 | 210 | 0.0 | 0.0 | 0.00 | 0.00 | 0.00 | 70 | 1016.5 |
| 20260905023108 | 84 | 165 | 2.0 | 5.0 | 0.00 | 0.00 | 0.00 | 70 | 1016.3 |
| 20260905022607 | 85 | 156 | 3.0 | 5.0 | 0.00 | 0.00 | 0.00 | 70 | 1016.5 |
| 20260905022103 | 85 | 197 | 2.0 | 2.0 | 0.00 | 0.00 | 0.00 | 69 | 1016.3 |
| 20260905021602 | 85 | 200 | 2.0 | 2.0 | 0.00 | 0.00 | 0.00 | 70 | 1016.4 |
| 20260905021058 | 85 | 198 | 3.0 | 3.0 | 0.00 | 0.00 | 0.00 | 70 | 1016.2 |
| 20260905020557 | 85 | 196 | 2.0 | 2.0 | 0.00 | 0.00 | 0.00 | 69 | 1016.4 |
| 20260905020053 | 86 | 172 | 4.0 | 5.0 | 0.00 | 0.00 | 0.00 | 68 | 1016.3 |
| 20260905015550 | 86 | 193 | 3.0 | 3.0 | 0.00 | 0.00 | 0.00 | 69 | 1016.4 |
| 20260905015045 | 86 | 243 | 4.0 | 6.0 | 0.00 | 0.00 | 0.00 | 68 | 1016.1 |
| 20260905014540 | 86 | 174 | 2.0 | 2.0 | 0.00 | 0.00 | 0.00 | 68 | 1016.2 |
| 20260905014035 | 86 | 186 | 2.0 | 2.0 | 0.00 | 0.00 | 0.00 | 67 | 1016.2 |
| 20260905013532 | 86 | 193 | 3.0 | 3.0 | 0.00 | 0.00 | 0.00 | 67 | 1016.2 |
| 20260905013027 | 87 | 168 | 4.0 | 5.0 | 0.00 | 0.00 | 0.00 | 67 | 1015.9 |
| 20260905012521 | 87 | 209 | 4.0 | 5.0 | 0.00 | 0.00 | 0.00 | 66 | 1015.9 |
| 20260905012019 | 87 | 215 | 5.0 | 7.0 | 0.00 | 0.00 | 0.00 | 65 | 1016.1 |
| 20260905011514 | 87 | 137 | 3.0 | 3.0 | 0.00 | 0.00 | 0.00 | 65 | 1015.7 |
| 20260905011010 | 87 | 179 | 2.0 | 2.0 | 0.00 | 0.00 | 0.00 | 64 | 1015.7 |
| 20260905010509 | 88 | 167 | 4.0 | 5.0 | 0.00 | 0.00 | 0.00 | 63 | 1015.6 |
| 20260905010006 | 88 | 179 | 2.0 | 2.0 | 0.00 | 0.00 | 0.00 | 63 | 1015.7 |
| 20260905005501 | 88 | 162 | 5.0 | 6.0 | 0.00 | 0.00 | 0.00 | 62 | 1015.5 |
| 20260905004956 | 88 | 221 | 0.0 | 1.0 | 0.00 | 0.00 | 0.00 | 62 | 1015.6 |
| 20260905004451 | 88 | 175 | 2.0 | 3.0 | 0.00 | 0.00 | 0.00 | 62 | 1015.6 |
| 20260905003946 | 89 | 194 | 0.0 | 0.0 | 0.00 | 0.00 | 0.00 | 62 | 1015.6 |
| 20260905003442 | 89 | 184 | 4.0 | 6.0 | 0.00 | 0.00 | 0.00 | 61 | 1015.3 |
| 20260905002937 | 89 | 160 | 5.0 | 6.0 | 0.00 | 0.00 | 0.00 | 60 | 1015.2 |
| 20260905002432 | 90 | 188 | 3.0 | 3.0 | 0.00 | 0.00 | 0.00 | 58 | 1015.3 |
| 20260905001931 | 91 | 130 | 3.0 | 3.0 | 0.00 | 0.00 | 0.00 | 50 | 1015.2 |
| 20260905001427 | 91 | 222 | 2.0 | 3.0 | 0.00 | 0.00 | 0.00 | 49 | 1015.2 |
| 20260905000921 | 91 | 210 | 3.0 | 5.0 | 0.00 | 0.00 | 0.00 | 48 | 1015.4 |
| 20260905000417 | 91 | 207 | 2.0 | 3.0 | 0.00 | 0.00 | 0.00 | 46 | 1015.0 |
| 20260904235912 | 91 | 210 | 4.0 | 6.0 | 0.00 | 0.00 | 0.00 | 45 | 1015.2 |
| 20260904235408 | 91 | 206 | 6.0 | 7.0 | 0.00 | 0.00 | 0.00 | 44 | 1015.2 |
| 20260904234908 | 92 | 176 | 3.0 | 5.0 | 0.00 | 0.00 | 0.00 | 43 | 1014.9 |
| 20260904234402 | 92 | 164 | 2.0 | 3.0 | 0.00 | 0.00 | 0.00 | 44 | 1015.1 |
| 20260904233858 | 92 | 176 | 3.0 | 3.0 | 0.00 | 0.00 | 0.00 | 44 | 1015.0 |
| 20260904233354 | 93 | 212 | 5.0 | 7.0 | 0.00 | 0.00 | 0.00 | 43 | 1015.0 |
| 20260904232850 | 93 | 156 | 4.0 | 6.0 | 0.00 | 0.00 | 0.00 | 43 | 1014.8 |
| 20260904232346 | 93 | 161 | 3.0 | 5.0 | 0.00 | 0.00 | 0.00 | 43 | 1014.5 |
| 20260904231843 | 93 | 181 | 4.0 | 6.0 | 0.00 | 0.00 | 0.00 | 43 | 1014.8 |
| 20260904231342 | 93 | 195 | 1.0 | 1.0 | 0.00 | 0.00 | 0.00 | 46 | 1015.1 |
| 20260904230838 | 93 | 160 | 5.0 | 6.0 | 0.00 | 0.00 | 0.00 | 45 | 1015.0 |
| 20260904230336 | 93 | 141 | 5.0 | 7.0 | 0.00 | 0.00 | 0.00 | 45 | 1014.9 |
| 20260904225832 | 94 | 182 | 2.0 | 2.0 | 0.00 | 0.00 | 0.00 | 45 | 1015.3 |
| 20260904225330 | 94 | 184 | 5.0 | 7.0 | 0.00 | 0.00 | 0.00 | 44 | 1015.1 |
| 20260904224829 | 94 | 117 | 5.0 | 7.0 | 0.00 | 0.00 | 0.00 | 44 | 1015.3 |
| 20260904224325 | 94 | 189 | 4.0 | 5.0 | 0.00 | 0.00 | 0.00 | 41 | 1015.2 |
| 20260904223824 | 93 | 214 | 4.0 | 5.0 | 0.00 | 0.00 | 0.00 | 47 | 1015.4 |
| 20260904223319 | 93 | 186 | 4.0 | 5.0 | 0.00 | 0.00 | 0.00 | 47 | 1015.3 |
| 20260904222816 | 94 | 211 | 2.0 | 3.0 | 0.00 | 0.00 | 0.00 | 45 | 1015.3 |
| 20260904222315 | 93 | 169 | 6.0 | 7.0 | 0.00 | 0.00 | 0.00 | 47 | 1015.2 |
| 20260904221810 | 93 | 118 | 6.0 | 7.0 | 0.00 | 0.00 | 0.00 | 49 | 1015.3 |
| 20260904221310 | 93 | 215 | 2.0 | 3.0 | 0.00 | 0.00 | 0.00 | 51 | 1015.3 |
| 20260904220806 | 93 | 191 | 5.0 | 6.0 | 0.00 | 0.00 | 0.00 | 52 | 1015.4 |
| 20260904220305 | 94 | 224 | 4.0 | 6.0 | 0.00 | 0.00 | 0.00 | 52 | 1015.5 |
| 20260904215800 | 94 | 196 | 5.0 | 8.0 | 0.00 | 0.00 | 0.00 | 51 | 1015.3 |
| 20260904215255 | 93 | 143 | 8.0 | 10.0 | 0.00 | 0.00 | 0.00 | 52 | 1015.4 |
| 20260904214751 | 93 | 165 | 5.0 | 7.0 | 0.00 | 0.00 | 0.00 | 52 | 1015.5 |
| 20260904214247 | 93 | 138 | 6.0 | 7.0 | 0.00 | 0.00 | 0.00 | 50 | 1015.6 |
| 20260904213745 | 93 | 169 | 5.0 | 7.0 | 0.00 | 0.00 | 0.00 | 52 | 1015.5 |
| 20260904213241 | 93 | 221 | 5.0 | 7.0 | 0.00 | 0.00 | 0.00 | 53 | 1015.7 |
| 20260904212736 | 92 | 187 | 3.0 | 5.0 | 0.00 | 0.00 | 0.00 | 55 | 1015.7 |
| 20260904212236 | 92 | 206 | 3.0 | 3.0 | 0.00 | 0.00 | 0.00 | 54 | 1015.6 |
| 20260904211731 | 93 | 129 | 6.0 | 9.0 | 0.00 | 0.00 | 0.00 | 55 | 1015.7 |
| 20260904211226 | 93 | 208 | 0.0 | 1.0 | 0.00 | 0.00 | 0.00 | 54 | 1015.8 |
| 20260904210721 | 95 | 158 | 7.0 | 9.0 | 0.00 | 0.00 | 0.00 | 53 | 1015.9 |
| 20260904210216 | 95 | 188 | 2.0 | 3.0 | 0.00 | 0.00 | 0.00 | 51 | 1016.0 |
| 20260904205712 | 93 | 196 | 3.0 | 5.0 | 0.00 | 0.00 | 0.00 | 53 | 1015.9 |
| 20260904205208 | 94 | 97 | 3.0 | 3.0 | 0.00 | 0.00 | 0.00 | 53 | 1015.9 |
| 20260904204703 | 94 | 160 | 3.0 | 5.0 | 0.00 | 0.00 | 0.00 | 52 | 1016.2 |
| 20260904204159 | 94 | 198 | 3.0 | 5.0 | 0.00 | 0.00 | 0.00 | 53 | 1016.1 |
| 20260904203655 | 94 | 230 | 0.0 | 0.0 | 0.00 | 0.00 | 0.00 | 56 | 1016.3 |
| 20260904203152 | 94 | 203 | 4.0 | 5.0 | 0.00 | 0.00 | 0.00 | 56 | 1016.3 |
| 20260904202647 | 94 | 160 | 4.0 | 5.0 | 0.00 | 0.00 | 0.00 | 56 | 1016.2 |
| 20260904202143 | 94 | 129 | 3.0 | 3.0 | 0.00 | 0.00 | 0.00 | 56 | 1016.3 |
| 20260904201638 | 94 | 176 | 3.0 | 5.0 | 0.00 | 0.00 | 0.00 | 55 | 1016.3 |
| 20260904201132 | 93 | 230 | 3.0 | 3.0 | 0.00 | 0.00 | 0.00 | 57 | 1016.5 |
| 20260904200627 | 93 | 155 | 6.0 | 7.0 | 0.00 | 0.00 | 0.00 | 60 | 1016.4 |
| 20260904200121 | 93 | 195 | 7.0 | 9.0 | 0.00 | 0.00 | 0.00 | 58 | 1016.6 |
| 20260904195620 | 93 | 201 | 7.0 | 10.0 | 0.00 | 0.00 | 0.00 | 59 | 1016.6 |
| 20260904195114 | 93 | 169 | 3.0 | 3.0 | 0.00 | 0.00 | 0.00 | 61 | 1016.6 |
| 20260904194614 | 92 | 206 | 4.0 | 5.0 | 0.00 | 0.00 | 0.00 | 61 | 1016.6 |
| 20260904194109 | 92 | 192 | 4.0 | 5.0 | 0.00 | 0.00 | 0.00 | 63 | 1016.7 |
| 20260904193603 | 92 | 181 | 5.0 | 6.0 | 0.00 | 0.00 | 0.00 | 63 | 1016.6 |
| 20260904193100 | 91 | 227 | 2.0 | 2.0 | 0.00 | 0.00 | 0.00 | 65 | 1017.1 |
| 20260904192559 | 91 | 133 | 2.0 | 2.0 | 0.00 | 0.00 | 0.00 | 64 | 1017.0 |
| 20260904192055 | 91 | 207 | 4.0 | 7.0 | 0.00 | 0.00 | 0.00 | 65 | 1017.2 |
| 20260904191552 | 91 | 144 | 4.0 | 5.0 | 0.00 | 0.00 | 0.00 | 65 | 1017.4 |
| 20260904191048 | 90 | 185 | 6.0 | 9.0 | 0.00 | 0.00 | 0.00 | 67 | 1017.5 |
| 20260904190543 | 89 | 186 | 5.0 | 6.0 | 0.00 | 0.00 | 0.00 | 68 | 1017.5 |
| 20260904190039 | 89 | 149 | 5.0 | 7.0 | 0.00 | 0.00 | 0.00 | 69 | 1017.6 |
| 20260904185536 | 90 | 214 | 4.0 | 6.0 | 0.00 | 0.00 | 0.00 | 67 | 1017.5 |
| 20260904185031 | 90 | 167 | 7.0 | 9.0 | 0.00 | 0.00 | 0.00 | 67 | 1017.4 |
| 20260904184530 | 89 | 168 | 5.0 | 7.0 | 0.00 | 0.00 | 0.00 | 68 | 1017.6 |
| 20260904184026 | 88 | 203 | 2.0 | 2.0 | 0.00 | 0.00 | 0.00 | 69 | 1017.7 |
| 20260904183521 | 89 | 221 | 3.0 | 5.0 | 0.00 | 0.00 | 0.00 | 69 | 1017.7 |
| 20260904183016 | 89 | 205 | 2.0 | 3.0 | 0.00 | 0.00 | 0.00 | 69 | 1017.9 |
| 20260904182512 | 89 | 172 | 2.0 | 3.0 | 0.00 | 0.00 | 0.00 | 69 | 1017.6 |
| 20260904182011 | 90 | 177 | 4.0 | 7.0 | 0.00 | 0.00 | 0.00 | 68 | 1017.6 |
| 20260904181507 | 89 | 183 | 6.0 | 7.0 | 0.00 | 0.00 | 0.00 | 68 | 1017.7 |
| 20260904181001 | 90 | 164 | 6.0 | 8.0 | 0.00 | 0.00 | 0.00 | 68 | 1017.8 |
| 20260904180456 | 90 | 193 | 5.0 | 6.0 | 0.00 | 0.00 | 0.00 | 68 | 1018.1 |
| 20260904175955 | 90 | 207 | 3.0 | 3.0 | 0.00 | 0.00 | 0.00 | 68 | 1017.9 |
| 20260904175450 | 89 | 180 | 2.0 | 6.0 | 0.00 | 0.00 | 0.00 | 69 | 1018.1 |
| 20260904174949 | 89 | 174 | 4.0 | 6.0 | 0.00 | 0.00 | 0.00 | 68 | 1018.0 |
| 20260904174445 | 88 | 195 | 3.0 | 3.0 | 0.00 | 0.00 | 0.00 | 71 | 1018.2 |
| 20260904173941 | 88 | 137 | 3.0 | 5.0 | 0.00 | 0.00 | 0.00 | 70 | 1018.2 |
| 20260904173441 | 88 | 160 | 4.0 | 7.0 | 0.00 | 0.00 | 0.00 | 69 | 1018.5 |
| 20260904172936 | 88 | 205 | 0.0 | 0.0 | 0.00 | 0.00 | 0.00 | 69 | 1018.3 |
| 20260904172431 | 89 | 215 | 3.0 | 5.0 | 0.00 | 0.00 | 0.00 | 68 | 1018.6 |
| 20260904171926 | 88 | 203 | 2.0 | 5.0 | 0.00 | 0.00 | 0.00 | 72 | 1018.2 |
| 20260904171422 | 89 | 245 | 2.0 | 3.0 | 0.00 | 0.00 | 0.00 | 69 | 1018.1 |
| 20260904170918 | 88 | 199 | 3.0 | 5.0 | 0.00 | 0.00 | 0.00 | 70 | 1018.3 |
| 20260904170413 | 89 | 196 | 1.0 | 2.0 | 0.00 | 0.00 | 0.00 | 70 | 1018.3 |
| 20260904165908 | 89 | 195 | 2.0 | 3.0 | 0.00 | 0.00 | 0.00 | 67 | 1018.5 |
| 20260904165407 | 89 | 182 | 3.0 | 5.0 | 0.00 | 0.00 | 0.00 | 68 | 1018.4 |